GW3673 Weather Reports


time (UTC)temp
F
wind
direction
speed
knots
gust
knots
rain 1hr
in
rain 24hr
in
rain mn
in
humidity
%
barometer
mb
20260510201536 53 313 0.0 2.6 0.00 0.00 0.00 58 1014.9
20260510200516 54 317 0.0 2.6 0.00 0.00 0.00 57 1014.9
20260510195516 54 312 0.0 2.6 0.00 0.00 0.00 56 1014.8
20260510194519 55 313 0.0 1.7 0.00 0.00 0.00 55 1014.9
20260510193520 55 325 0.9 3.5 0.00 0.00 0.00 54 1015.0
20260510192519 56 317 0.9 5.2 0.00 0.00 0.00 53 1014.9
20260510191517 57 312 0.9 3.5 0.00 0.00 0.00 52 1014.8
20260510190517 57 13 1.7 5.2 0.00 0.00 0.00 51 1014.8
20260510185618 57 342 0.0 2.6 0.00 0.00 0.00 54 1014.8
20260510184518 57 310 0.0 1.7 0.00 0.00 0.00 53 1014.7
20260510183521 57 53 0.9 4.3 0.00 0.00 0.00 53 1014.7
20260510182518 57 3 0.9 5.2 0.00 0.00 0.00 53 1014.8
20260510181538 58 93 0.9 4.3 0.00 0.00 0.00 52 1014.8
20260510180522 58 324 0.9 2.6 0.00 0.00 0.00 54 1014.8
20260510175518 57 321 0.9 5.2 0.00 0.00 0.00 54 1014.9
20260510174519 57 314 1.7 4.3 0.00 0.00 0.00 54 1015.0
20260510173518 57 343 0.9 3.5 0.00 0.00 0.00 54 1015.0
20260510172619 57 327 0.9 5.2 0.00 0.00 0.00 55 1015.1
20260510171519 57 61 0.9 5.2 0.00 0.00 0.00 55 1015.3
20260510170519 57 65 0.9 4.3 0.00 0.00 0.00 56 1015.4
20260510165519 58 92 0.9 3.5 0.00 0.00 0.00 56 1015.3
20260510164517 58 329 0.9 4.3 0.00 0.00 0.00 55 1015.4
20260510163516 57 68 0.9 2.6 0.00 0.00 0.00 56 1015.6
20260510162537 57 115 1.7 5.2 0.00 0.00 0.00 57 1015.7
20260510161518 58 77 1.7 5.2 0.00 0.00 0.00 57 1015.8
20260510160517 57 63 1.7 5.2 0.00 0.00 0.00 59 1016.0
20260510155518 57 109 0.9 4.3 0.00 0.00 0.00 61 1016.1
20260510154521 57 31 1.7 5.2 0.00 0.00 0.00 60 1016.2
20260510153520 57 355 0.9 3.5 0.00 0.00 0.00 61 1016.2
20260510152521 56 107 0.9 4.3 0.00 0.00 0.00 61 1016.2
20260510151518 57 125 1.7 5.2 0.00 0.00 0.00 61 1016.4
20260510150518 56 110 1.7 6.1 0.00 0.00 0.00 62 1016.5
20260510145518 56 121 1.7 7.0 0.00 0.00 0.00 63 1016.6
20260510144518 56 97 1.7 7.0 0.00 0.00 0.00 64 1016.8
20260510143522 56 87 1.7 7.0 0.00 0.00 0.00 64 1016.9
20260510142522 55 88 0.9 2.6 0.00 0.00 0.00 65 1017.1
20260510141519 55 92 1.7 6.1 0.00 0.00 0.00 66 1017.2
20260510140519 55 115 1.7 6.1 0.00 0.00 0.00 65 1017.3
20260510135519 55 86 0.9 5.2 0.00 0.00 0.00 66 1017.3
20260510134537 55 74 0.9 4.3 0.00 0.00 0.00 67 1017.4
20260510133516 54 128 1.7 7.0 0.00 0.00 0.00 67 1017.5
20260510132620 54 95 0.9 5.2 0.00 0.00 0.00 69 1017.5
20260510131520 54 106 1.7 6.1 0.00 0.00 0.00 69 1017.5
20260510130521 54 126 2.6 4.3 0.00 0.00 0.00 70 1017.6
20260510125637 54 68 1.7 6.1 0.00 0.00 0.00 70 1017.7
20260510124518 53 124 1.7 7.0 0.00 0.00 0.00 71 1017.8
20260510123518 53 101 1.7 5.2 0.00 0.00 0.00 71 1017.8
20260510122518 53 82 2.6 5.2 0.00 0.00 0.00 72 1018.0
20260510121518 53 82 1.7 5.2 0.00 0.00 0.00 72 1018.0
20260510120515 53 122 0.9 3.5 0.00 0.00 0.00 73 1018.1
20260510115519 52 2 0.9 4.3 0.00 0.00 0.00 74 1018.2
20260510114519 52 50 0.9 4.3 0.00 0.00 0.00 75 1018.3
20260510113522 52 125 1.7 7.8 0.00 0.00 0.00 75 1018.3
20260510112519 52 17 1.7 5.2 0.00 0.00 0.00 75 1018.4
20260510111519 52 354 1.7 5.2 0.00 0.00 0.00 76 1018.5
20260510110519 52 89 1.7 6.1 0.00 0.00 0.00 76 1018.6
20260510105517 52 99 1.7 7.0 0.00 0.00 0.00 77 1018.6
20260510104516 52 115 1.7 5.2 0.00 0.00 0.00 76 1018.6
20260510103603 51 74 1.7 5.2 0.00 0.00 0.00 77 1018.7
20260510102520 51 104 2.6 7.0 0.00 0.00 0.00 77 1018.8
20260510101520 51 105 1.7 6.1 0.00 0.00 0.00 78 1018.8
20260510100517 51 63 1.7 6.1 0.00 0.00 0.00 78 1018.9
20260510095638 51 121 2.6 7.8 0.00 0.00 0.00 78 1018.8
20260510094558 51 100 0.9 3.5 0.00 0.00 0.00 79 1018.8
20260510093518 50 112 2.6 7.0 0.00 0.00 0.00 79 1018.9
20260510092521 51 121 2.6 7.0 0.00 0.00 0.00 79 1018.9
20260510091518 51 100 1.7 4.3 0.00 0.00 0.00 79 1018.9
20260510090518 51 112 1.7 6.1 0.00 0.00 0.00 79 1018.8
20260510085519 50 105 1.7 7.0 0.00 0.00 0.00 79 1019.0
20260510084519 50 107 2.6 6.1 0.00 0.00 0.00 80 1019.0
20260510083519 50 121 1.7 6.1 0.00 0.00 0.00 80 1019.0
20260510082519 50 119 1.7 6.1 0.00 0.00 0.00 80 1019.0
20260510081516 50 106 2.6 7.0 0.00 0.00 0.00 80 1019.0
20260510080516 51 95 1.7 5.2 0.00 0.00 0.00 80 1019.1
20260510075516 50 130 0.9 5.2 0.00 0.00 0.00 80 1019.0
20260510074539 50 140 2.6 7.0 0.00 0.00 0.00 80 1018.9
20260510073520 50 76 2.6 7.0 0.00 0.00 0.00 80 1018.8
20260510072517 50 66 1.7 4.3 0.00 0.00 0.00 81 1018.8
20260510071637 50 107 1.7 7.8 0.00 0.00 0.00 80 1018.7
20260510070518 50 115 2.6 6.1 0.00 0.00 0.00 80 1018.6
20260510065519 50 119 2.6 7.0 0.00 0.00 0.00 81 1018.5
20260510064600 50 106 1.7 7.8 0.00 0.00 0.00 81 1018.5
20260510063524 50 126 2.6 7.0 0.00 0.00 0.00 81 1018.4
20260510062538 50 125 1.7 7.0 0.00 0.00 0.00 81 1018.4
20260510061519 50 90 1.7 6.1 0.00 0.00 0.00 81 1018.4
20260510060519 50 128 1.7 5.2 0.00 0.00 0.00 81 1018.4
20260510055519 50 113 0.9 4.3 0.00 0.00 0.00 81 1018.3
20260510054519 50 96 1.7 6.1 0.00 0.00 0.00 81 1018.3
20260510053518 50 108 1.7 4.3 0.00 0.00 0.00 81 1018.4
20260510052519 50 115 0.9 4.3 0.00 0.00 0.00 81 1018.3
20260510051519 50 123 1.7 5.2 0.00 0.00 0.00 81 1018.3
20260510050519 50 112 1.7 6.1 0.00 0.00 0.00 81 1018.3
20260510045540 50 121 2.6 7.8 0.00 0.00 0.00 81 1018.4
20260510044517 50 94 0.9 4.3 0.00 0.00 0.00 81 1018.3
20260510043617 51 95 1.7 4.3 0.00 0.00 0.00 80 1018.2
20260510042517 51 108 1.7 6.1 0.00 0.00 0.00 80 1018.2
20260510040516 51 108 2.6 7.0 0.00 0.00 0.00 80 1018.3
20260510035517 51 100 1.7 7.8 0.00 0.00 0.00 80 1018.3
20260510034517 51 99 0.9 4.3 0.00 0.00 0.00 80 1018.3
20260510033518 51 125 2.6 9.6 0.00 0.00 0.00 80 1018.3
20260510032517 51 119 1.7 5.2 0.00 0.00 0.00 80 1018.4
20260510031518 51 125 1.7 6.1 0.00 0.00 0.00 80 1018.5
20260510030518 51 113 1.7 7.8 0.00 0.00 0.00 80 1018.6
20260510025558 51 70 1.7 4.3 0.00 0.00 0.00 80 1018.6
20260510024538 51 123 2.6 6.1 0.00 0.00 0.00 80 1018.6
20260510023517 51 129 1.7 6.1 0.00 0.00 0.00 80 1018.6
20260510022638 51 106 2.6 7.8 0.00 0.00 0.00 80 1018.5
20260510021637 52 116 2.6 7.8 0.00 0.00 0.00 79 1018.6
20260510020518 52 83 1.7 6.1 0.00 0.00 0.00 79 1018.5
20260510015518 52 111 1.7 6.1 0.00 0.00 0.00 79 1018.5
20260510014518 52 88 1.7 5.2 0.00 0.00 0.00 78 1018.5
20260510013518 52 118 1.7 5.2 0.00 0.00 0.00 78 1018.5
20260510012657 53 105 1.7 7.8 0.00 0.00 0.00 78 1018.6
20260510011517 53 126 1.7 6.1 0.00 0.00 0.00 78 1018.6
20260510010519 53 118 2.6 6.1 0.00 0.00 0.00 77 1018.6
20260510005539 54 91 1.7 6.1 0.00 0.00 0.00 78 1018.6
20260510004517 54 83 1.7 6.1 0.00 0.00 0.00 78 1018.6
20260510003518 54 53 1.7 5.2 0.00 0.00 0.00 77 1018.6
20260510002518 54 102 1.7 6.1 0.00 0.00 0.00 76 1018.6
20260510001518 55 114 1.7 6.1 0.00 0.00 0.00 75 1018.6
20260510000515 55 116 2.6 7.8 0.00 0.00 0.00 75 1018.4
20260509235519 55 107 1.7 4.3 0.00 0.00 0.00 76 1018.3
20260509234516 55 41 1.7 10.4 0.00 0.00 0.00 75 1018.3
20260509233519 56 107 1.7 6.1 0.00 0.00 0.00 76 1018.2
20260509232519 56 110 1.7 5.2 0.00 0.00 0.00 76 1018.2
20260509231519 56 101 1.7 7.0 0.00 0.00 0.00 76 1018.0
20260509230519 56 95 1.7 7.0 0.00 0.00 0.00 76 1018.1
20260509225519 57 93 1.7 6.1 0.00 0.00 0.00 76 1018.1
20260509224516 57 113 1.7 5.2 0.00 0.00 0.00 76 1018.0
20260509223517 57 123 1.7 5.2 0.00 0.00 0.00 76 1017.9
20260509222520 57 117 1.7 6.1 0.00 0.00 0.00 76 1017.9
20260509221520 58 101 1.7 9.6 0.00 0.00 0.00 75 1017.8
20260509220617 58 112 0.9 5.2 0.00 0.00 0.00 75 1017.8
20260509215517 58 87 1.7 7.8 0.00 0.00 0.00 75 1017.8
20260509214521 58 66 1.7 4.3 0.00 0.00 0.00 74 1017.8
20260509213538 59 84 2.6 7.0 0.00 0.00 0.00 74 1017.7
20260509212538 59 54 2.6 7.8 0.00 0.00 0.00 74 1017.6
20260509211518 59 271 1.7 6.1 0.00 0.00 0.00 73 1017.6
20260509210518 59 346 1.7 5.2 0.00 0.00 0.00 72 1017.5
20260509205538 59 332 0.9 4.3 0.00 0.00 0.00 71 1017.5
20260509204519 60 325 0.9 5.2 0.00 0.00 0.00 71 1017.4
20260509203519 60 335 0.9 3.5 0.00 0.00 0.00 70 1017.4
20260509202516 60 326 1.7 7.8 0.00 0.00 0.00 69 1017.4